EDT,Max TemperatureF,Mean TemperatureF,Min TemperatureF,Max Dew PointF,MeanDew PointF,Min DewpointF,Max Humidity, Mean Humidity, Min Humidity, Max Sea Level PressureIn, Mean Sea Level PressureIn, Min Sea Level PressureIn, Max VisibilityMiles, Mean VisibilityMiles, Min VisibilityMiles, Max Wind SpeedMPH, Mean Wind SpeedMPH, Max Gust SpeedMPH,PrecipitationIn, CloudCover, Events, WindDirDegrees
2013-4-1,38,32,24,31,18,13,88,58,38,30.08,29.94,29.70,10,10,3,22,13,30,0.00,5,Snow,300
2013-4-2,40,30,20,22,15,11,93,57,33,30.23,30.13,30.07,10,10,0,17,8,29,0.00,3,Snow,281
2013-4-3,41,32,23,19,14,10,75,50,30,30.41,30.33,30.23,10,10,10,17,5,25,0.00,1,,292
2013-4-4,56,42,27,21,17,14,58,39,21,30.33,30.12,29.93,10,10,10,15,7,22,0.00,1,,209
2013-4-5,46,38,30,32,21,15,92,48,29,30.18,30.08,29.93,10,10,5,13,5,21,0.00,1,,344
2013-4-6,52,41,30,26,23,18,80,51,30,30.21,30.06,29.74,10,10,10,21,11,26,0.00,5,,141
2013-4-7,57,47,36,46,36,24,86,64,34,30.03,29.82,29.59,10,10,10,23,14,36,0.00,6,Rain,253
2013-4-8,63,48,32,56,40,30,97,85,58,30.03,29.88,29.68,10,8,2,26,8,41,0.00,4,Rain,155
2013-4-9,49,44,40,47,44,40,100,94,79,30.07,29.99,29.88,10,4,0,15,7,18,0.00,8,Fog-Rain,69
2013-4-10,43,40,37,43,40,37,100,98,97,29.99,29.94,29.86,10,8,0,14,8,21,0.00,8,Rain,42
2013-4-11,37,36,36,38,37,36,100,99,97,29.98,29.84,29.62,10,6,1,22,11,32,0.00,8,Rain,73
2013-4-12,41,38,34,40,36,33,100,93,75,29.74,29.62,29.52,10,7,1,17,6,25,0.00,8,Rain,250
2013-4-13,41,38,34,39,32,28,98,81,70,29.97,29.83,29.74,10,9,2,21,12,29,0.00,8,Rain-Snow,246
2013-4-14,47,40,32,39,33,28,95,80,69,30.10,30.01,29.90,10,10,3,17,5,21,0.00,5,Rain-Snow,150
2013-4-15,66,53,40,56,46,34,93,73,57,29.92,29.89,29.86,10,10,10,20,12,26,0.00,3,Rain,167
2013-4-16,60,53,46,56,42,33,97,70,39,30.23,30.05,29.86,10,10,7,15,8,24,0.00,4,Rain,290
2013-4-17,58,48,38,45,36,31,97,67,39,30.33,30.23,29.98,10,9,1,26,8,36,0.00,4,Rain,76
2013-4-18,75,60,44,64,55,43,98,90,68,29.98,29.70,29.55,10,9,5,26,14,39,0.00,6,Rain,174
2013-4-19,58,45,32,58,39,30,99,85,68,29.74,29.53,29.35,10,8,1,28,15,39,0.00,8,Rain-Snow,226
2013-4-20,38,33,28,31,22,16,93,63,52,30.43,30.14,29.73,10,10,5,22,13,30,0.00,5,Snow,282
2013-4-21,48,36,24,29,26,23,97,67,41,30.59,30.50,30.43,10,10,7,14,4,18,0.00,0,,132
2013-4-22,61,46,32,35,29,21,96,54,28,30.44,30.31,30.18,10,10,7,13,8,17,0.00,0,,133
2013-4-23,68,54,41,55,42,32,97,64,37,30.17,29.98,29.82,10,9,4,20,10,32,0.00,4,Rain,172
2013-4-24,47,40,34,47,36,28,99,89,62,30.11,29.89,29.78,10,6,1,16,9,23,0.00,7,Rain-Snow,309
2013-4-25,49,42,34,41,32,27,93,70,48,30.33,30.15,30.07,10,10,2,21,8,29,0.00,3,Rain,237
2013-4-26,58,44,29,36,32,27,96,60,39,30.43,30.37,30.32,10,10,7,15,5,22,0.00,0,,186
2013-4-27,69,54,39,40,37,33,89,54,27,30.35,30.25,30.10,10,10,7,12,6,16,0.00,0,,153
2013-4-28,60,54,48,54,46,34,100,78,50,30.10,29.94,29.84,10,7,0,16,6,22,0.00,8,Fog-Rain,109
2013-4-29,69,61,53,55,54,51,100,80,53,29.93,29.89,29.84,10,6,0,9,3,,0.00,6,Fog,222
2013-4-30,72,62,53,58,55,52,96,79,53,30.05,29.99,29.92,10,8,2,21,9,29,0.00,3,Rain,164